ラインムート第1彗星

30P/Reinmuth 1 (2017)

English version
Home page
Updated on August 6, 2017

---------------------------------------------------------------------

・ プロフィール

・ 写真集

・ 軌道要素

Epoch 2017 Sept. 4.0 TT = JDT 2458000.5
T 2017 Aug. 19.17252 TT                                 MPCW
q   1.8766803            (2000.0)            P               Q
n   0.13470796     Peri.   13.29108     -0.67992761     -0.72292036
a   3.7688358      Node   119.70388     +0.65917838     -0.67595566
e   0.5020531      Incl.    8.12884     +0.32122002     -0.14307375
P   7.32
From 2439 observations 1979 Oct. 23-2017 Jan. 10, mean residual 0".8.
     Nongravitational parameters A1 = +0.25, A2 = -0.0141.

・ 星図

・ 光度変化

        m1 = 10.5 + 5 logΔ + 13.0 log r

---------------------------------------------------------------------

軌道要素はM.P.E.C. 2017-A77に掲載されたものです。
星図はステラナビゲータ Ver.10 (アストロアーツ) で作成したものです。
光度グラフはComet for Windowsで作成したものです。

---------------------------------------------------------------------

Copyright(C) Seiichi Yoshida (comet@aerith.net). All rights reserved.